Total_Precipitation_Accumulation
0.12 0.22 0.24 0.24 0.23 0.19 0.15 0.13 0.23 0.27 0.40 0.49 0.54 0.66 0.83 1.01 0.99 0.93 0.76 0.67 0.75 0.75 0.79 0.82 0.83 0.92 0.87 0.88 0.93 1.07 1.26 1.37 1.50 1.51 1.48 1.48 1.53 1.57 1.59 1.67 1.67 1.74 1.81 1.83
0.16 0.20 0.25 0.28 0.26 0.20 0.14 0.12 0.17 0.26 0.41 0.54 0.61 0.70 0.78 0.78 0.71 0.63 0.58 0.48 0.46 0.64 0.74 0.70 0.70 0.74 0.69 0.75 0.88 1.02 1.12 1.21 1.41 1.56 1.60 1.59 1.62 1.71 1.75 1.74 1.74 1.78 1.75 1.80
0.26 0.25 0.26 0.35 0.34 0.25 0.16 0.14 0.21 0.33 0.51 0.68 0.57 0.60 0.67 0.67 0.67 0.61 0.59 0.46 0.41 0.50 0.67 0.67 0.68 0.68 0.75 0.87 1.00 1.10 1.25 1.37 1.55 1.66 1.76 1.77 1.73 1.83 1.80 1.80 1.85 1.81 1.74 1.73
0.33 0.44 0.52 0.38 0.31 0.30 0.29 0.27 0.28 0.40 0.43 0.58 0.58 0.64 0.76 0.75 0.75 0.59 0.53 0.46 0.46 0.47 0.50 0.56 0.63 0.68 0.82 1.10 1.35 1.39 1.52 1.69 1.78 1.87 1.84 1.82 1.83 1.85 1.92 2.01 2.04 2.00 1.93 1.86
0.48 0.62 0.53 0.46 0.33 0.36 0.41 0.55 0.56 0.64 0.62 0.57 0.57 0.69 0.78 0.67 0.60 0.61 0.51 0.47 0.50 0.55 0.58 0.66 0.72 0.75 0.94 1.18 1.47 1.63 1.65 1.74 1.90 1.99 2.03 2.05 2.08 2.04 2.10 2.21 2.17 2.07 2.03 2.06
0.61 0.76 0.75 0.62 0.48 0.47 0.59 1.04 0.87 0.80 0.82 0.71 0.67 0.82 0.91 0.83 0.75 0.69 0.63 0.59 0.61 0.64 0.76 0.93 1.00 1.02 1.14 1.26 1.40 1.58 1.65 1.76 1.94 2.18 2.23 2.26 2.40 2.47 2.39 2.35 2.21 2.22 2.22 2.20
0.76 0.83 0.90 0.76 0.69 0.72 1.13 1.41 1.09 0.92 0.89 0.88 0.99 1.01 0.95 0.84 0.84 0.78 0.68 0.70 0.69 0.72 0.88 1.10 1.23 1.26 1.36 1.49 1.58 1.59 1.68 1.81 2.02 2.21 2.30 2.37 2.52 2.59 2.54 2.49 2.46 2.40 2.34 2.38
0.93 1.11 1.27 0.88 0.84 1.25 1.52 1.27 1.26 1.25 1.17 1.04 1.02 0.98 0.94 0.85 0.83 0.77 0.74 0.81 0.84 0.89 1.03 1.23 1.40 1.37 1.43 1.50 1.55 1.61 1.62 1.73 1.87 2.03 2.07 2.16 2.41 2.49 2.55 2.58 2.52 2.43 2.37 2.25
1.24 1.35 1.24 1.03 1.10 1.27 1.41 1.57 1.48 1.37 1.37 1.18 1.13 1.05 0.95 0.87 0.83 0.81 0.78 0.84 0.91 0.97 1.14 1.37 1.53 1.55 1.62 1.52 1.60 1.64 1.67 1.80 1.94 2.01 2.07 2.17 2.27 2.30 2.37 2.45 2.40 2.30 2.31 2.25
1.41 1.45 1.36 1.22 1.08 1.01 1.15 1.26 1.25 1.24 1.24 1.19 1.15 1.09 1.00 0.90 0.82 0.82 0.82 0.78 0.84 0.95 1.02 1.11 1.31 1.49 1.59 1.66 1.71 1.73 1.74 1.78 1.87 1.98 1.98 2.03 2.16 2.25 2.35 2.45 2.52 2.42 2.31 2.22
1.68 1.58 1.45 1.44 1.32 1.20 1.27 1.34 1.26 1.19 1.16 1.16 1.14 1.08 0.94 0.91 0.89 0.87 0.86 0.81 0.83 0.92 0.94 1.00 1.09 1.22 1.31 1.44 1.57 1.63 1.68 1.72 1.73 1.76 1.85 1.94 1.98 2.06 2.06 2.16 2.20 2.19 2.13 2.10
2.01 1.76 1.61 1.56 1.42 1.30 1.36 1.34 1.41 1.49 1.44 1.22 1.10 1.17 1.10 0.97 0.88 0.87 0.88 0.88 0.90 0.91 0.89 0.93 0.99 1.15 1.26 1.37 1.52 1.64 1.71 1.74 1.66 1.61 1.68 1.73 1.78 1.76 1.76 1.71 1.73 1.71 1.72 1.73
1.65 1.47 1.44 1.42 1.39 1.31 1.30 1.24 1.24 1.36 1.38 1.25 1.20 1.17 1.21 1.12 1.04 0.97 0.90 0.84 0.86 0.92 0.90 0.93 0.97 1.08 1.18 1.28 1.40 1.52 1.61 1.67 1.66 1.63 1.67 1.68 1.69 1.68 1.71 1.65 1.57 1.52 1.49 1.49
1.45 1.40 1.41 1.35 1.29 1.29 1.30 1.22 1.10 1.12 1.18 1.21 1.25 1.28 1.38 1.30 1.18 1.11 1.05 0.96 0.88 0.88 0.88 0.90 0.99 1.01 1.10 1.18 1.25 1.32 1.41 1.48 1.59 1.69 1.73 1.76 1.77 1.81 1.87 1.91 1.83 1.65 1.50 1.42
1.54 1.42 1.33 1.20 1.20 1.26 1.24 1.17 1.10 1.06 1.18 1.34 1.30 1.27 1.32 1.24 1.17 1.11 1.04 0.97 0.94 0.92 0.96 0.97 1.01 1.04 1.11 1.20 1.27 1.29 1.32 1.37 1.38 1.44 1.54 1.63 1.62 1.65 1.73 1.81 1.83 1.72 1.56 1.45
1.65 1.51 1.32 1.18 1.23 1.35 1.39 1.33 1.23 1.12 1.07 1.21 1.30 1.23 1.20 1.13 1.03 1.05 1.07 1.07 1.10 1.10 1.11 1.11 1.15 1.10 1.16 1.24 1.30 1.34 1.31 1.34 1.34 1.32 1.32 1.36 1.40 1.47 1.55 1.64 1.69 1.62 1.52 1.41
1.69 1.64 1.48 1.31 1.24 1.25 1.29 1.32 1.25 1.18 1.08 1.07 1.15 1.18 1.19 1.14 1.04 1.02 1.05 1.07 1.13 1.14 1.14 1.18 1.24 1.24 1.31 1.36 1.38 1.39 1.32 1.29 1.29 1.28 1.30 1.31 1.35 1.41 1.45 1.50 1.55 1.49 1.37 1.23
1.54 1.48 1.39 1.29 1.21 1.17 1.18 1.17 1.16 1.16 1.10 1.06 1.07 1.09 1.11 1.18 1.21 1.15 1.08 1.08 1.09 1.06 1.03 1.04 1.12 1.20 1.33 1.45 1.50 1.48 1.35 1.25 1.18 1.18 1.25 1.31 1.34 1.41 1.44 1.43 1.39 1.33 1.23 1.08
1.38 1.35 1.30 1.21 1.19 1.17 1.16 1.13 1.13 1.12 1.07 1.00 1.05 1.14 1.16 1.18 1.29 1.26 1.18 1.19 1.25 1.27 1.14 1.04 1.11 1.09 1.17 1.39 1.55 1.56 1.43 1.30 1.20 1.17 1.18 1.21 1.23 1.29 1.34 1.31 1.23 1.15 1.07 1.03
1.39 1.40 1.41 1.37 1.29 1.26 1.20 1.12 1.12 1.11 1.10 1.08 1.08 1.13 1.21 1.20 1.28 1.36 1.35 1.27 1.26 1.34 1.32 1.23 1.12 1.03 1.03 1.24 1.55 1.50 1.42 1.32 1.19 1.09 1.11 1.15 1.18 1.24 1.26 1.22 1.13 1.07 1.03 0.99
1.48 1.53 1.50 1.46 1.38 1.27 1.16 1.09 1.13 1.17 1.14 1.17 1.17 1.18 1.24 1.23 1.20 1.31 1.43 1.30 1.19 1.30 1.37 1.33 1.13 1.03 1.02 1.19 1.48 1.47 1.38 1.32 1.19 1.08 1.07 1.09 1.12 1.20 1.22 1.19 1.12 1.03 0.99 0.99
1.72 1.74 1.60 1.44 1.37 1.25 1.14 1.08 1.08 1.10 1.13 1.19 1.21 1.24 1.37 1.38 1.35 1.32 1.27 1.25 1.21 1.32 1.33 1.28 1.18 1.08 1.00 1.06 1.17 1.26 1.20 1.12 1.04 0.97 0.94 0.97 1.04 1.11 1.14 1.15 1.12 1.07 1.06 1.06
1.71 1.65 1.55 1.37 1.31 1.16 1.00 0.99 1.00 1.03 1.08 1.17 1.27 1.38 1.59 1.60 1.51 1.55 1.35 1.09 1.08 1.22 1.20 1.13 1.13 1.06 0.98 0.93 1.02 1.10 1.07 1.04 0.98 0.88 0.81 0.84 0.92 0.98 1.04 1.01 1.01 1.02 0.98 0.93
1.48 1.40 1.32 1.21 1.22 1.16 1.09 1.06 1.05 1.08 1.11 1.13 1.19 1.32 1.55 1.70 1.52 1.28 1.19 1.16 1.12 1.10 1.04 1.05 1.05 1.02 0.98 0.91 0.96 1.04 1.09 1.10 1.06 1.00 0.90 0.91 0.92 0.95 0.99 0.96 0.93 0.91 0.87 0.89
1.43 1.25 1.13 1.18 1.30 1.36 1.29 1.23 1.22 1.26 1.26 1.23 1.22 1.26 1.37 1.59 1.60 1.28 1.07 0.99 1.03 1.00 0.95 1.03 1.06 1.05 0.91 0.83 0.88 1.01 1.10 1.14 1.16 1.11 1.06 1.08 1.06 1.05 1.05 1.02 1.03 1.01 0.98 0.96
1.37 1.25 1.19 1.20 1.26 1.37 1.40 1.43 1.50 1.53 1.55 1.60 1.56 1.45 1.47 1.52 1.45 1.28 1.07 0.94 0.94 0.99 0.94 1.00 1.06 1.07 0.92 0.86 0.88 0.97 1.05 1.12 1.17 1.18 1.16 1.12 1.09 1.11 1.13 1.10 1.08 1.06 0.99 0.93
1.37 1.25 1.21 1.20 1.23 1.34 1.47 1.61 1.72 1.77 1.83 1.98 1.97 1.68 1.58 1.62 1.57 1.45 1.25 1.12 1.13 1.15 1.13 1.07 0.99 0.95 0.97 1.01 1.00 0.94 0.99 1.09 1.10 1.13 1.18 1.12 1.07 1.05 1.06 1.02 0.97 0.94 0.86 0.78